SCP
0 0 0 0 0 0 0 -0 -0 -0 -0 -0 -0 -0 -0 0 0 0 0 0 -0 -0 -0 -0 -0 -0 -0 0 -0 -0 0 0
0 0 0 0 0 0 0 -0 0 0 -0 -0 -0 -0 -0 0 -0 0 0 0 0 0 0 -0 -0 -0 -0 0 0 0 0 0
0 0 0 0 0 0 0 0 0 0 0 -0 -0 -0 -0 0 -0 -0 0 0 0 0 0 0 0 0 0 0 0 0 0 0
0 0 0 0 0 0 0 0 0 0 0 0 0 0 -0 -0 0 0 0 0 0 0 0 0 0 0 0 0 0 0 0 0
0 0 0 0 0 0 0 0 0 0 0 0 0 0 0 0 0 0 0 0 0 0 0 0 0 0 0 0 0 0 0 0
0 -0 0 0 0 0 0 0 0 0 0 0 0 0 0 0 0 0 0 0 0 0 0 0 0 0 0 0 0 0 0 0
0 0 0 0 0 0 0 0 0 0 0 0 0 0 0 0 0 0 0 0 0 0 0 0 0 0 0 0 0 0 0 0
0 0 -0 0 0 0 0 0 0 0 0 0 0 0 0 0 0 0 0 0 0 0 0 0 0 0 0 0 0 0 0 0
0 0 0 0 0 1 0 0 0 0 0 0 0 0 0 0 0 0 0 0 0 0 0 0 0 0 0 0 0 0 0 0
0 0 0 0 0 0 1 0 0 0 0 0 0 0 0 0 0 0 0 0 0 0 0 0 0 0 0 0 0 0 0 0
0 0 0 0 0 0 1 1 0 0 0 0 0 0 0 0 0 0 0 0 0 0 0 0 0 0 0 0 0 0 0 0
0 0 0 0 0 1 1 1 1 0 0 0 0 0 0 0 0 0 0 0 0 0 0 0 0 0 0 0 0 0 0 0
0 0 0 0 0 0 1 1 1 1 0 0 0 0 0 0 0 0 0 0 0 0 0 0 0 0 0 0 0 0 0 0
0 0 0 0 0 0 0 1 1 1 0 0 0 0 0 0 0 0 0 0 0 0 0 0 0 0 0 0 0 0 0 0
0 0 0 0 0 0 0 1 1 1 0 0 0 0 0 0 0 0 0 0 0 0 0 0 0 0 0 0 0 0 0 0
0 0 0 0 0 0 0 0 1 1 1 0 0 0 0 0 0 0 0 0 0 0 0 0 0 0 0 0 0 0 0 0
0 0 0 0 0 0 0 0 0 1 0 0 0 0 0 0 0 0 0 0 0 0 0 0 0 0 0 0 0 0 0 0
0 0 0 0 0 0 0 0 0 0 0 0 0 0 0 0 0 0 0 0 0 0 0 0 0 0 0 0 0 0 0 0
0 0 0 0 0 0 0 0 0 0 0 0 0 0 0 0 0 0 0 0 0 0 0 0 0 0 0 0 0 0 0 0
0 0 0 0 0 0 0 0 0 0 0 0 0 0 0 0 0 0 0 0 0 0 0 0 0 0 0 0 0 0 0 0
Wind_Speed_500mb
31 34 35 35 37 40 44 48 50 49 50 51 55 60 63 60 47 45 46 47 52 55 55 52 47 41 34 30 23 17 20 16
27 31 33 35 38 38 44 48 51 50 49 53 57 64 62 66 55 49 47 51 57 61 57 51 45 39 33 25 23 26 17 12
25 29 33 35 38 40 44 48 51 50 49 51 55 59 64 64 54 52 50 58 65 65 59 50 43 38 32 26 27 21 14 9
23 27 32 35 38 41 46 50 53 53 52 50 56 60 58 71 54 52 58 68 70 65 57 50 44 42 36 27 23 17 11 4
31 31 35 40 42 45 47 52 55 58 58 59 59 61 56 65 59 52 68 79 74 67 60 51 44 40 35 28 22 15 8 3
38 43 41 45 46 49 51 56 59 61 62 61 64 63 64 64 53 58 74 85 79 69 61 52 46 40 30 27 20 12 6 3
39 44 53 52 50 52 55 59 62 64 65 64 67 70 74 78 57 61 80 87 79 71 61 52 47 44 33 26 19 10 6 4
43 49 54 61 58 54 55 60 64 67 70 69 72 73 72 75 69 66 78 86 80 72 63 58 50 45 35 29 17 11 9 7
47 50 53 65 64 54 54 59 67 71 74 74 73 72 72 74 78 78 86 86 83 73 64 60 51 49 38 31 23 13 12 8
34 51 54 56 70 66 60 56 69 71 75 77 76 76 81 71 82 82 91 91 84 75 71 66 57 51 44 37 28 15 14 10
27 41 52 50 66 68 63 59 68 68 76 79 78 79 79 72 77 79 82 92 99 82 81 73 62 50 46 39 31 17 14 13
30 25 38 52 52 66 67 62 69 67 80 75 75 79 78 75 75 69 74 83 96 91 86 76 64 54 52 44 34 24 15 16
29 26 30 39 39 37 68 72 73 69 74 77 78 81 75 65 57 58 53 101 95 90 81 77 72 64 55 47 40 32 26 25
42 34 25 26 37 48 44 75 71 70 72 75 76 81 77 47 62 60 48 43 98 91 71 81 76 67 62 56 39 35 37 36
51 46 36 28 30 44 46 61 72 69 66 77 85 84 88 75 67 63 54 47 73 94 77 87 82 72 63 47 21 19 44 45
51 46 41 31 27 25 23 30 65 74 75 70 82 81 84 78 69 74 76 72 83 91 88 82 80 80 73 68 45 29 29 26
59 48 42 37 23 22 18 34 36 73 75 71 73 82 80 81 81 85 88 85 93 92 97 94 90 88 86 73 64 48 37 29
62 54 48 43 35 24 15 35 30 44 74 70 72 81 84 92 87 88 89 83 88 94 97 98 101 90 86 83 69 64 59 44
68 64 58 53 41 26 26 28 34 44 42 72 77 78 94 100 96 101 99 94 90 87 94 94 90 89 89 87 78 73 60 60
82 69 62 64 49 37 25 23 23 61 32 56 78 73 94 103 106 98 91 94 93 88 87 93 86 81 86 86 87 89 80 73
Wind_Direction_500mb
194 197 198 202 206 206 203 203 204 201 197 193 192 188 180 181 189 183 177 178 173 171 166 163 159 153 144 139 134 135 140 140
202 206 206 206 208 207 205 205 205 204 200 197 194 192 187 184 191 191 182 176 174 170 167 164 159 150 144 142 137 133 139 141
213 220 218 212 210 210 206 206 207 206 204 202 199 198 193 184 190 193 186 178 175 172 168 163 156 148 140 132 135 137 141 141
233 238 233 223 216 214 209 207 206 205 205 202 203 200 198 179 186 191 182 178 175 175 172 166 162 153 143 137 133 127 123 140
251 258 246 230 224 218 212 210 208 205 205 205 204 202 183 180 189 179 179 176 175 178 176 174 168 158 150 144 140 121 102 136
256 252 247 237 230 226 217 212 210 208 208 207 205 198 190 184 182 178 180 178 180 183 180 176 170 164 160 155 147 137 113 109
248 251 250 242 236 233 224 217 213 212 210 208 208 201 196 186 182 178 186 183 187 186 183 178 173 169 168 168 159 155 143 103
241 245 243 245 240 238 238 224 217 214 213 210 211 208 202 200 194 184 193 187 188 189 186 179 176 176 175 176 177 176 164 124
245 245 241 249 242 246 241 237 224 218 217 215 213 213 207 201 193 196 192 193 192 189 189 183 181 180 184 183 184 186 170 140
265 251 233 242 252 243 242 244 231 225 221 219 217 219 214 208 200 202 196 192 197 194 193 185 187 185 188 189 186 175 178 161
309 250 234 241 242 243 245 249 238 233 222 224 222 224 218 218 215 214 220 205 198 195 192 194 188 187 193 196 187 185 196 180
326 285 251 238 235 241 240 242 237 245 225 227 225 225 224 220 212 216 218 213 194 194 191 189 195 195 198 188 189 180 211 209
338 303 284 246 232 229 238 235 237 235 231 221 223 226 224 212 209 202 204 207 190 192 191 188 192 198 194 188 189 190 207 228
356 338 307 287 238 232 234 242 235 236 231 232 225 226 231 234 197 201 188 199 198 195 191 191 194 196 198 186 186 197 205 222
352 351 338 298 276 245 237 239 235 227 242 230 236 231 229 217 202 194 191 195 205 203 201 193 195 201 202 195 170 199 205 220
349 350 346 332 310 253 231 227 227 235 236 225 232 231 226 214 211 195 197 202 204 201 209 210 207 203 206 208 212 214 192 217
358 348 349 344 321 292 267 224 234 241 238 234 229 235 228 215 215 207 205 207 203 203 204 210 218 217 215 212 216 216 231 224
1 354 352 350 339 311 276 237 231 229 238 237 224 225 232 223 223 212 212 210 210 210 213 212 218 221 224 223 228 232 222 228
4 360 355 355 349 336 310 245 238 232 233 244 235 221 220 229 219 213 215 214 213 214 218 216 218 228 230 231 233 244 235 245
8 6 1 359 356 344 324 326 245 235 228 232 234 240 229 228 226 223 217 213 213 217 217 216 218 225 234 238 239 236 242 241
Wind_Speed_850mb
31 34 35 35 37 40 44 48 50 49 50 51 55 60 63 60 47 45 46 47 52 55 55 52 47 41 34 30 23 17 20 16
27 31 33 35 38 38 44 48 51 50 49 53 57 64 62 66 55 49 47 51 57 61 57 51 45 39 33 25 23 26 17 12
25 29 33 35 38 40 44 48 51 50 49 51 55 59 64 64 54 52 50 58 65 65 59 50 43 38 32 26 27 21 14 9
23 27 32 35 38 41 46 50 53 53 52 50 56 60 58 71 54 52 58 68 70 65 57 50 44 42 36 27 23 17 11 4
31 31 35 40 42 45 47 52 55 58 58 59 59 61 56 65 59 52 68 79 74 67 60 51 44 40 35 28 22 15 8 3
38 43 41 45 46 49 51 56 59 61 62 61 64 63 64 64 53 58 74 85 79 69 61 52 46 40 30 27 20 12 6 3
39 44 53 52 50 52 55 59 62 64 65 64 67 70 74 78 57 61 80 87 79 71 61 52 47 44 33 26 19 10 6 4
43 49 54 61 58 54 55 60 64 67 70 69 72 73 72 75 69 66 78 86 80 72 63 58 50 45 35 29 17 11 9 7
47 50 53 65 64 54 54 59 67 71 74 74 73 72 72 74 78 78 86 86 83 73 64 60 51 49 38 31 23 13 12 8
34 51 54 56 70 66 60 56 69 71 75 77 76 76 81 71 82 82 91 91 84 75 71 66 57 51 44 37 28 15 14 10
27 41 52 50 66 68 63 59 68 68 76 79 78 79 79 72 77 79 82 92 99 82 81 73 62 50 46 39 31 17 14 13
30 25 38 52 52 66 67 62 69 67 80 75 75 79 78 75 75 69 74 83 96 91 86 76 64 54 52 44 34 24 15 16
29 26 30 39 39 37 68 72 73 69 74 77 78 81 75 65 57 58 53 101 95 90 81 77 72 64 55 47 40 32 26 25
42 34 25 26 37 48 44 75 71 70 72 75 76 81 77 47 62 60 48 43 98 91 71 81 76 67 62 56 39 35 37 36
51 46 36 28 30 44 46 61 72 69 66 77 85 84 88 75 67 63 54 47 73 94 77 87 82 72 63 47 21 19 44 45
51 46 41 31 27 25 23 30 65 74 75 70 82 81 84 78 69 74 76 72 83 91 88 82 80 80 73 68 45 29 29 26
59 48 42 37 23 22 18 34 36 73 75 71 73 82 80 81 81 85 88 85 93 92 97 94 90 88 86 73 64 48 37 29
62 54 48 43 35 24 15 35 30 44 74 70 72 81 84 92 87 88 89 83 88 94 97 98 101 90 86 83 69 64 59 44
68 64 58 53 41 26 26 28 34 44 42 72 77 78 94 100 96 101 99 94 90 87 94 94 90 89 89 87 78 73 60 60
82 69 62 64 49 37 25 23 23 61 32 56 78 73 94 103 106 98 91 94 93 88 87 93 86 81 86 86 87 89 80 73
Wind_Direction_850mb
194 197 198 202 206 206 203 203 204 201 197 193 192 188 180 181 189 183 177 178 173 171 166 163 159 153 144 139 134 135 140 140
202 206 206 206 208 207 205 205 205 204 200 197 194 192 187 184 191 191 182 176 174 170 167 164 159 150 144 142 137 133 139 141
213 220 218 212 210 210 206 206 207 206 204 202 199 198 193 184 190 193 186 178 175 172 168 163 156 148 140 132 135 137 141 141
233 238 233 223 216 214 209 207 206 205 205 202 203 200 198 179 186 191 182 178 175 175 172 166 162 153 143 137 133 127 123 140
251 258 246 230 224 218 212 210 208 205 205 205 204 202 183 180 189 179 179 176 175 178 176 174 168 158 150 144 140 121 102 136
256 252 247 237 230 226 217 212 210 208 208 207 205 198 190 184 182 178 180 178 180 183 180 176 170 164 160 155 147 137 113 109
248 251 250 242 236 233 224 217 213 212 210 208 208 201 196 186 182 178 186 183 187 186 183 178 173 169 168 168 159 155 143 103
241 245 243 245 240 238 238 224 217 214 213 210 211 208 202 200 194 184 193 187 188 189 186 179 176 176 175 176 177 176 164 124
245 245 241 249 242 246 241 237 224 218 217 215 213 213 207 201 193 196 192 193 192 189 189 183 181 180 184 183 184 186 170 140
265 251 233 242 252 243 242 244 231 225 221 219 217 219 214 208 200 202 196 192 197 194 193 185 187 185 188 189 186 175 178 161
309 250 234 241 242 243 245 249 238 233 222 224 222 224 218 218 215 214 220 205 198 195 192 194 188 187 193 196 187 185 196 180
326 285 251 238 235 241 240 242 237 245 225 227 225 225 224 220 212 216 218 213 194 194 191 189 195 195 198 188 189 180 211 209
338 303 284 246 232 229 238 235 237 235 231 221 223 226 224 212 209 202 204 207 190 192 191 188 192 198 194 188 189 190 207 228
356 338 307 287 238 232 234 242 235 236 231 232 225 226 231 234 197 201 188 199 198 195 191 191 194 196 198 186 186 197 205 222
352 351 338 298 276 245 237 239 235 227 242 230 236 231 229 217 202 194 191 195 205 203 201 193 195 201 202 195 170 199 205 220
349 350 346 332 310 253 231 227 227 235 236 225 232 231 226 214 211 195 197 202 204 201 209 210 207 203 206 208 212 214 192 217
358 348 349 344 321 292 267 224 234 241 238 234 229 235 228 215 215 207 205 207 203 203 204 210 218 217 215 212 216 216 231 224
1 354 352 350 339 311 276 237 231 229 238 237 224 225 232 223 223 212 212 210 210 210 213 212 218 221 224 223 228 232 222 228
4 360 355 355 349 336 310 245 238 232 233 244 235 221 220 229 219 213 215 214 213 214 218 216 218 228 230 231 233 244 235 245
8 6 1 359 356 344 324 326 245 235 228 232 234 240 229 228 226 223 217 213 213 217 217 216 218 225 234 238 239 236 242 241